Location: Paris
(48.6709°N, 2.3750°E)
Time: 13:20:05
(UTC+01:00)

ISS - Pass Details

Date: 01 November 2021
Orbit: 417 x 423 km, 51.6° (Epoch: 30 November)

Event Time Altitude Azimuth Distance (km) Brightness Sun altitude
Exits shadow 06:08:44 29° 305° (NW) 799 -2.8 -15.0°
Maximum altitude 06:10:06 50° 4° (N) 547 -3.2 -14.8°
Drops below altitude 10° 06:13:23 10° 82° (E) 1,501 0.3 -14.2°
Sets 06:15:32 0° 87° (E) 2,363 1.9 -13.9°
